EW0199 Weather Reports


Display with metric or nautical units.
time (UTC)temp
F
wind
direction
speed
MPH
gust
MPH
rain 1hr
in
rain 24hr
in
rain mn
in
humidity
%
barometer
mb
20260509052822 45 167 0.0 0.0 0.00 0.00 0.00 68 998.4
20260509052327 45 167 0.0 0.0 0.00 0.00 0.00 68 998.5
20260509051853 45 167 0.0 0.0 0.00 0.00 0.00 68 998.6
20260509051338 45 167 0.0 0.0 0.00 0.00 0.00 69 998.7
20260509050824 45 167 0.0 0.0 0.00 0.00 0.00 68 998.8
20260509050351 45 167 0.0 0.0 0.00 0.00 0.00 68 998.9
20260509045913 45 167 0.0 0.0 0.00 0.00 0.00 67 999.0
20260509045332 45 167 0.0 0.0 0.00 0.00 0.00 65 998.9
20260509044854 45 167 0.0 0.0 0.00 0.00 0.00 68 999.0
20260509043844 46 167 0.0 0.0 0.00 0.00 0.00 69 999.1
20260509042842 46 167 0.0 0.0 0.00 0.00 0.00 63 999.3
20260509042406 46 167 0.0 0.0 0.00 0.00 0.00 62 999.3
20260509041823 46 167 0.0 0.0 0.00 0.00 0.00 62 999.3
20260509041344 46 167 0.0 0.0 0.00 0.00 0.00 64 999.3
20260509040846 46 167 0.0 0.0 0.00 0.00 0.00 62 999.4
20260509040341 46 167 0.0 0.0 0.00 0.00 0.00 63 999.4
20260509035433 46 167 0.0 0.0 0.00 0.00 0.00 65 999.5
20260509034832 46 167 0.0 0.0 0.00 0.00 0.00 63 999.6
20260509034355 47 167 0.0 0.0 0.00 0.00 0.00 63 999.6
20260509033908 47 167 0.0 0.0 0.00 0.00 0.00 65 999.7
20260509033325 47 167 0.0 0.0 0.00 0.00 0.00 62 999.7
20260509032847 47 167 0.0 0.0 0.00 0.00 0.00 64 999.8
20260509031843 48 167 0.0 0.0 0.00 0.00 0.00 63 999.9
20260509031412 48 167 0.0 0.0 0.00 0.00 0.00 59 1000.0
20260509030936 48 167 0.0 0.0 0.00 0.00 0.00 55 1000.0
20260509030338 49 167 0.0 0.0 0.00 0.00 0.00 56 1000.1
20260509025906 49 167 0.0 0.0 0.00 0.00 0.00 56 1000.1
20260509025326 50 167 0.0 0.0 0.00 0.00 0.00 63 1000.1
20260509024853 50 167 0.0 0.0 0.00 0.00 0.00 58 1000.1
20260509024403 50 167 0.0 0.0 0.00 0.00 0.00 52 1000.2
20260509023911 51 167 0.0 0.0 0.00 0.00 0.00 52 1000.2
20260509023327 52 167 0.0 0.0 0.00 0.00 0.00 50 1000.2
20260509022845 53 167 0.0 0.0 0.00 0.00 0.00 49 1000.2
20260509022411 54 167 0.0 0.0 0.00 0.00 0.00 49 1000.2
20260509021839 55 167 0.0 0.0 0.00 0.00 0.00 42 1000.3
20260509021347 56 167 0.0 0.0 0.00 0.00 0.00 40 1000.3
20260509020914 56 167 0.0 0.0 0.00 0.00 0.00 40 1000.2
20260509020336 57 167 0.0 1.0 0.00 0.00 0.00 38 1000.2
20260509015904 58 167 0.0 1.0 0.00 0.00 0.00 38 1000.2
20260509015409 58 167 0.0 1.0 0.00 0.00 0.00 38 1000.2
20260509014827 58 208 0.0 1.0 0.00 0.00 0.00 37 1000.2
20260509014354 59 213 0.0 3.0 0.00 0.00 0.00 37 1000.2
20260509013915 59 214 0.0 3.0 0.00 0.00 0.00 36 1000.2
20260509013337 60 220 0.0 1.0 0.00 0.00 0.00 36 1000.2
20260509012904 60 231 0.0 2.0 0.00 0.00 0.00 35 1000.3
20260509012427 60 286 0.0 2.0 0.00 0.00 0.00 34 1000.3
20260509011828 61 199 0.0 5.0 0.00 0.00 0.00 34 1000.4
20260509011345 61 274 1.0 7.0 0.00 0.00 0.00 33 1000.4
20260509010908 61 184 2.0 7.0 0.00 0.00 0.00 33 1000.4
20260509010432 61 218 1.0 7.0 0.00 0.00 0.00 33 1000.4
20260509005838 61 281 3.0 7.0 0.00 0.00 0.00 33 1000.3
20260509005406 62 226 2.0 9.0 0.00 0.00 0.00 33 1000.3
20260509004825 62 223 5.0 9.0 0.00 0.00 0.00 33 1000.4
20260509004358 62 288 0.0 5.0 0.00 0.00 0.00 34 1000.4
20260509003336 62 256 2.0 6.0 0.00 0.00 0.00 34 1000.5
20260509002854 61 331 1.0 5.0 0.00 0.00 0.00 34 1000.5
20260509002417 62 290 1.0 7.0 0.00 0.00 0.00 34 1000.7
20260509001838 62 235 1.0 8.0 0.00 0.00 0.00 33 1000.6
20260509001345 62 287 2.0 12.0 0.00 0.00 0.00 33 1000.7
20260509000854 62 285 3.0 12.0 0.00 0.00 0.00 33 1000.9
20260509000403 61 229 3.0 16.0 0.00 0.00 0.00 34 1000.8
20260508235908 62 298 6.0 16.0 0.00 0.00 0.00 33 1000.7
20260508235415 61 35 1.0 4.0 0.00 0.00 0.00 32 1000.9
20260508234915 62 247 0.0 1.0 0.00 0.00 0.00 32 1000.9
20260508234337 62 281 0.0 1.0 0.00 0.00 0.00 33 1000.7
20260508233845 62 333 0.0 1.0 0.00 0.00 0.00 32 1000.8
20260508233408 62 248 0.0 1.0 0.00 0.00 0.00 31 1000.7
20260508232918 62 248 0.0 3.0 0.00 0.00 0.00 31 1000.8
20260508232334 63 208 0.0 2.0 0.00 0.00 0.00 30 1000.8
20260508231834 63 274 0.0 4.0 0.00 0.00 0.00 30 1000.9
20260508231344 63 285 1.0 5.0 0.00 0.00 0.00 31 1000.9
20260508230845 63 292 0.0 5.0 0.00 0.00 0.00 31 1001.0
20260508230409 63 289 2.0 5.0 0.00 0.00 0.00 29 1001.0
20260508225915 63 288 0.0 6.0 0.00 0.00 0.00 30 1001.0
20260508225435 63 302 2.0 6.0 0.00 0.00 0.00 30 1001.0
20260508224914 62 283 1.0 6.0 0.00 0.00 0.00 31 1001.1
20260508224335 62 299 2.0 6.0 0.00 0.00 0.00 30 1001.1
20260508223853 62 281 0.0 3.0 0.00 0.00 0.00 31 1001.2
20260508223413 62 281 1.0 8.0 0.00 0.00 0.00 31 1001.3
20260508222833 62 281 5.0 8.0 0.00 0.00 0.00 30 1001.4
20260508222344 62 268 1.0 4.0 0.00 0.00 0.00 30 1001.4
20260508221909 62 299 2.0 4.0 0.00 0.00 0.00 30 1001.4
20260508221329 62 293 1.0 8.0 0.00 0.00 0.00 30 1001.4
20260508220832 62 297 3.0 10.0 0.00 0.00 0.00 30 1001.6
20260508220355 62 278 5.0 10.0 0.00 0.00 0.00 29 1001.6
20260508215905 62 290 4.0 8.0 0.00 0.00 0.00 29 1001.6
20260508215326 62 300 3.0 11.0 0.00 0.00 0.00 30 1001.6
20260508214836 62 125 3.0 13.0 0.00 0.00 0.00 31 1001.7
20260508214344 62 341 5.0 13.0 0.00 0.00 0.00 30 1001.7
20260508213909 62 299 1.0 9.0 0.00 0.00 0.00 31 1001.7
20260508213427 62 350 3.0 9.0 0.00 0.00 0.00 29 1001.6
20260508212832 63 305 3.0 10.0 0.00 0.00 0.00 29 1001.7
20260508212339 63 300 4.0 8.0 0.00 0.00 0.00 30 1001.8
20260508211345 63 308 6.0 16.0 0.00 0.00 0.00 28 1001.8
20260508210337 63 316 4.0 13.0 0.00 0.00 0.00 29 1001.8
20260508205403 63 286 8.0 16.0 0.00 0.00 0.00 27 1001.9
20260508204825 63 248 6.0 18.0 0.00 0.00 0.00 29 1002.1
20260508204354 63 311 7.0 18.0 0.00 0.00 0.00 27 1002.2
20260508203920 63 267 6.0 15.0 0.00 0.00 0.00 28 1002.1
20260508203335 63 316 4.0 16.0 0.00 0.00 0.00 28 1002.2
20260508202902 63 296 10.0 17.0 0.00 0.00 0.00 28 1002.2
20260508202323 63 305 6.0 16.0 0.00 0.00 0.00 28 1002.4
20260508201853 63 295 10.0 16.0 0.00 0.00 0.00 28 1002.6
20260508201419 64 236 4.0 17.0 0.00 0.00 0.00 28 1002.5
20260508200845 64 215 8.0 17.0 0.00 0.00 0.00 28 1002.4
20260508200408 63 300 6.0 15.0 0.00 0.00 0.00 30 1002.5
20260508195823 62 323 4.0 14.0 0.00 0.00 0.00 30 1002.5
20260508195345 62 292 2.0 14.0 0.00 0.00 0.00 29 1002.6
20260508194843 63 326 5.0 19.0 0.00 0.00 0.00 29 1002.7
20260508193842 63 216 4.0 13.0 0.00 0.00 0.00 28 1002.7
20260508192845 63 276 3.0 10.0 0.00 0.00 0.00 29 1002.8
20260508192408 62 298 3.0 10.0 0.00 0.00 0.00 31 1002.8
20260508191914 62 290 4.0 13.0 0.00 0.00 0.00 29 1002.9
20260508190847 63 285 7.0 12.0 0.00 0.00 0.00 29 1003.0
20260508190355 63 300 6.0 11.0 0.00 0.00 0.00 29 1003.1
20260508185854 63 309 5.0 10.0 0.00 0.00 0.00 30 1003.1
20260508185323 63 208 2.0 11.0 0.00 0.00 0.00 29 1003.1
20260508184838 63 229 2.0 11.0 0.00 0.00 0.00 29 1003.3
20260508184342 62 230 4.0 10.0 0.00 0.00 0.00 31 1003.4
20260508183343 62 314 9.0 20.0 0.00 0.00 0.00 28 1003.5
20260508182341 63 279 8.0 18.0 0.00 0.00 0.00 30 1003.8
20260508181344 62 311 6.0 19.0 0.00 0.00 0.00 30 1003.7
20260508180910 62 244 7.0 13.0 0.00 0.00 0.00 30 1003.8
20260508180325 62 290 6.0 13.0 0.00 0.00 0.00 30 1004.0
20260508175845 62 217 6.0 14.0 0.00 0.00 0.00 30 1004.0
20260508175412 62 321 5.0 14.0 0.00 0.00 0.00 30 1004.0
20260508174826 62 223 3.0 13.0 0.00 0.00 0.00 31 1004.1
20260508174348 62 276 5.0 13.0 0.00 0.00 0.00 29 1004.2
20260508173913 62 298 4.0 14.0 0.00 0.00 0.00 31 1004.2
20260508173330 62 293 8.0 18.0 0.00 0.00 0.00 30 1004.2
20260508172850 62 300 4.0 15.0 0.00 0.00 0.00 31 1004.5
20260508172418 61 289 6.0 10.0 0.00 0.00 0.00 29 1004.6
20260508171843 61 205 3.0 11.0 0.00 0.00 0.00 31 1004.8
20260508171412 61 284 7.0 14.0 0.00 0.00 0.00 30 1004.9
20260508170830 60 321 5.0 15.0 0.00 0.00 0.00 31 1004.9
20260508170351 60 310 4.0 15.0 0.00 0.00 0.00 30 1004.9
20260508165858 61 236 5.0 16.0 0.00 0.00 0.00 30 1005.1
20260508165420 62 283 7.0 14.0 0.00 0.00 0.00 29 1005.2
20260508164846 62 264 3.0 12.0 0.00 0.00 0.00 29 1004.9
20260508164409 61 42 4.0 14.0 0.00 0.00 0.00 30 1005.1
20260508163830 61 321 6.0 14.0 0.00 0.00 0.00 29 1005.2
20260508163355 61 191 3.0 13.0 0.00 0.00 0.00 31 1005.2
20260508162919 60 262 5.0 12.0 0.00 0.00 0.00 30 1005.4
20260508162342 60 305 6.0 13.0 0.00 0.00 0.00 31 1005.4
20260508161906 59 262 7.0 16.0 0.00 0.00 0.00 31 1005.4
20260508161326 60 184 4.0 17.0 0.00 0.00 0.00 31 1005.5
20260508160849 60 209 5.0 12.0 0.00 0.00 0.00 32 1005.4
20260508160419 60 287 7.0 14.0 0.00 0.00 0.00 30 1005.5
20260508155921 59 244 6.0 14.0 0.00 0.00 0.00 31 1005.6
20260508155323 59 298 6.0 14.0 0.00 0.00 0.00 32 1005.7
20260508154846 59 305 7.0 14.0 0.00 0.00 0.00 31 1005.7
20260508154410 59 278 5.0 11.0 0.00 0.00 0.00 32 1005.7
20260508153933 59 326 3.0 11.0 0.00 0.00 0.00 33 1005.7
20260508153330 59 272 3.0 10.0 0.00 0.00 0.00 32 1005.9
20260508152851 58 306 4.0 10.0 0.00 0.00 0.00 34 1005.9
20260508152357 58 272 3.0 10.0 0.00 0.00 0.00 33 1005.9
20260508151920 58 299 6.0 10.0 0.00 0.00 0.00 33 1006.0
20260508151346 57 271 3.0 11.0 0.00 0.00 0.00 34 1006.0
20260508150343 56 271 5.0 14.0 0.00 0.00 0.00 34 1006.1
20260508145342 56 311 6.0 10.0 0.00 0.00 0.00 34 1006.2
20260508144344 56 274 3.0 12.0 0.00 0.00 0.00 35 1006.2
20260508143918 55 282 3.0 12.0 0.00 0.00 0.00 36 1006.4
20260508143341 55 317 3.0 15.0 0.00 0.00 0.00 36 1006.4
20260508142852 54 303 5.0 11.0 0.00 0.00 0.00 38 1006.5
20260508142420 54 286 2.0 9.0 0.00 0.00 0.00 39 1006.6
20260508141919 54 293 4.0 9.0 0.00 0.00 0.00 37 1006.6
20260508141341 53 174 4.0 8.0 0.00 0.00 0.00 39 1006.6
20260508140850 52 293 3.0 9.0 0.00 0.00 0.00 42 1006.7
20260508140401 52 310 4.0 9.0 0.00 0.00 0.00 41 1006.8
20260508135824 51 309 2.0 9.0 0.00 0.00 0.00 45 1006.8
20260508135347 51 279 3.0 9.0 0.00 0.00 0.00 45 1006.8
20260508134912 50 233 2.0 6.0 0.00 0.00 0.00 48 1006.8
20260508134420 49 247 1.0 6.0 0.00 0.00 0.00 49 1006.8
20260508133842 49 255 1.0 5.0 0.00 0.00 0.00 51 1006.9
20260508133408 48 215 1.0 5.0 0.00 0.00 0.00 53 1007.0
20260508132909 47 229 1.0 5.0 0.00 0.00 0.00 54 1007.0
20260508132328 46 306 1.0 4.0 0.00 0.00 0.00 56 1007.0
20260508131851 45 286 0.0 4.0 0.00 0.00 0.00 59 1007.1
20260508130849 43 216 0.0 5.0 0.00 0.00 0.00 63 1007.1
20260508130413 42 281 1.0 4.0 0.00 0.00 0.00 66 1007.1
20260508125833 41 300 1.0 3.0 0.00 0.00 0.00 67 1007.1
20260508125356 39 316 0.0 3.0 0.00 0.00 0.00 72 1007.2
20260508124919 38 223 0.0 2.0 0.00 0.00 0.00 73 1007.2
20260508124421 37 290 0.0 1.0 0.00 0.00 0.00 76 1007.2
20260508123837 36 287 0.0 2.0 0.00 0.00 0.00 80 1007.2
20260508123405 35 264 0.0 2.0 0.00 0.00 0.00 84 1007.2
20260508122913 33 20 0.0 0.0 0.00 0.00 0.00 88 1007.1
20260508122412 32 20 0.0 0.0 0.00 0.00 0.00 90 1007.2
20260508121832 31 21 0.0 0.0 0.00 0.00 0.00 92 1007.2
20260508121356 30 21 0.0 0.0 0.00 0.00 0.00 94 1007.1
20260508120920 29 21 0.0 0.0 0.00 0.00 0.00 95 1007.1
20260508120343 28 21 0.0 0.0 0.00 0.00 0.00 95 1007.1
20260508115906 28 20 0.0 0.0 0.00 0.00 0.00 95 1007.1
20260508114844 27 21 0.0 0.0 0.00 0.00 0.00 95 1007.0
20260508114407 27 21 0.0 0.0 0.00 0.00 0.00 95 1007.0
20260508113917 26 21 0.0 0.0 0.00 0.00 0.00 94 1007.0
20260508113336 26 21 0.0 0.0 0.00 0.00 0.00 94 1007.0
20260508112858 26 21 0.0 0.0 0.00 0.00 0.00 94 1007.0
20260508112421 26 21 0.0 0.0 0.00 0.00 0.00 94 1007.0
20260508111837 26 21 0.0 0.0 0.00 0.00 0.00 94 1007.0
20260508111406 26 20 0.0 0.0 0.00 0.00 0.00 94 1007.0
20260508110827 26 21 0.0 0.0 0.00 0.00 0.00 94 1007.0
20260508110338 26 21 0.0 0.0 0.00 0.00 0.00 94 1006.9
20260508105907 26 20 0.0 0.0 0.00 0.00 0.00 94 1006.9
20260508105431 26 21 0.0 0.0 0.00 0.00 0.00 94 1006.9
20260508104933 25 21 0.0 0.0 0.00 0.00 0.00 94 1006.9
20260508104340 25 20 0.0 0.0 0.00 0.00 0.00 94 1006.9
20260508103344 25 21 0.0 0.0 0.00 0.00 0.00 93 1006.9
20260508102345 26 21 0.0 0.0 0.00 0.00 0.00 93 1007.0
20260508101344 26 21 0.0 0.0 0.00 0.00 0.00 93 1007.0
20260508100912 26 21 0.0 0.0 0.00 0.00 0.00 93 1007.0
20260508100328 26 20 0.0 0.0 0.00 0.00 0.00 92 1007.0
20260508095847 27 20 0.0 0.0 0.00 0.00 0.00 92 1007.0
20260508095354 27 21 0.0 0.0 0.00 0.00 0.00 92 1007.1
20260508094854 27 21 0.0 0.0 0.00 0.00 0.00 92 1007.2
20260508094418 27 21 0.0 0.0 0.00 0.00 0.00 92 1007.3
20260508093836 27 21 0.0 0.0 0.00 0.00 0.00 91 1007.3
20260508093404 28 20 0.0 0.0 0.00 0.00 0.00 91 1007.3
20260508092933 28 20 0.0 0.0 0.00 0.00 0.00 91 1007.1
20260508092441 28 20 0.0 0.0 0.00 0.00 0.00 91 1007.3
20260508091845 28 20 0.0 0.0 0.00 0.00 0.00 90 1007.3
20260508090841 29 21 0.0 0.0 0.00 0.00 0.00 90 1007.3
20260508090410 29 21 0.0 0.0 0.00 0.00 0.00 90 1007.3
20260508085912 29 21 0.0 0.0 0.00 0.00 0.00 89 1007.4
20260508085335 29 20 0.0 0.0 0.00 0.00 0.00 89 1007.4
20260508084858 30 20 0.0 0.0 0.00 0.00 0.00 89 1007.4
20260508084413 30 20 0.0 0.0 0.00 0.00 0.00 89 1007.4
20260508083839 30 20 0.0 0.0 0.00 0.00 0.00 89 1007.5
20260508083407 30 21 0.0 0.0 0.00 0.00 0.00 88 1007.5
20260508082908 30 21 0.0 0.0 0.00 0.00 0.00 88 1007.4
20260508082323 30 21 0.0 0.0 0.00 0.00 0.00 87 1007.4
20260508081846 31 21 0.0 0.0 0.00 0.00 0.00 87 1007.5
20260508080845 31 21 0.0 0.0 0.00 0.00 0.00 88 1007.4
20260508080346 31 20 0.0 0.0 0.00 0.00 0.00 87 1007.5
20260508075346 31 21 0.0 0.0 0.00 0.00 0.00 87 1007.6
20260508074910 30 21 0.0 0.0 0.00 0.00 0.00 87 1007.6
20260508074332 31 21 0.0 0.0 0.00 0.00 0.00 87 1007.7
20260508073902 31 21 0.0 0.0 0.00 0.00 0.00 87 1007.6
20260508072930 31 21 0.0 0.0 0.00 0.00 0.00 87 1007.7
20260508072324 31 21 0.0 0.0 0.00 0.00 0.00 86 1007.8
20260508071852 31 20 0.0 0.0 0.00 0.00 0.00 86 1007.8
20260508071415 31 21 0.0 0.0 0.00 0.00 0.00 87 1007.9
20260508070832 31 21 0.0 0.0 0.00 0.00 0.00 86 1007.8
20260508070400 31 21 0.0 0.0 0.00 0.00 0.00 85 1007.9
20260508065827 31 20 0.0 0.0 0.00 0.00 0.00 85 1007.9
20260508065334 31 20 0.0 0.0 0.00 0.00 0.00 85 1007.9
20260508064839 31 21 0.0 0.0 0.00 0.00 0.00 84 1008.0
20260508064325 31 21 0.0 0.0 0.00 0.00 0.00 85 1008.0
20260508063831 31 21 0.0 0.0 0.00 0.00 0.00 84 1008.1
20260508063343 31 20 0.0 0.0 0.00 0.00 0.00 85 1008.1
20260508062828 31 20 0.0 0.0 0.00 0.00 0.00 85 1008.2
20260508062354 31 21 0.0 0.0 0.00 0.00 0.00 84 1008.2
20260508061900 32 21 0.0 0.0 0.00 0.00 0.00 85 1008.3
20260508061327 31 21 0.0 0.0 0.00 0.00 0.00 85 1008.3
20260508060833 31 21 0.0 0.0 0.00 0.00 0.00 85 1008.4
20260508060340 31 20 0.0 0.0 0.00 0.00 0.00 85 1008.4
20260508055825 31 21 0.0 0.0 0.00 0.00 0.00 84 1008.3
20260508055330 32 20 0.0 0.0 0.00 0.00 0.00 84 1008.3
20260508054856 32 21 0.0 0.0 0.00 0.00 0.00 84 1008.3
20260508054401 32 20 0.0 0.0 0.00 0.00 0.00 84 1008.4
20260508053825 32 21 0.0 0.0 0.00 0.00 0.00 85 1008.5